Find Starlink 33744

NORAD ID: 63471 Int'l Des: 2025-070 Owner: SPXS Country: US Constellation: starlink operational
LEOCIRCULAR

当前视图

正在加载3D地球...

About Starlink 33744

Starlink 33744 (NORAD 63471) is a starlink constellation satellite (v2 mini) launched Apr 6, 2025 by SPXS of US. It operates in LEO, CIRCULAR orbit with a mass of 575.00 kg.

即将过境

Passes for default location (London). Set your location on the main map for personalized predictions.

高度历史

Loading altitude history...

两行轨道根数

1 63471U 25070M 26236.47039293 .00019164 00000-0 70383-3 0 9996
2 63471 42.9942 32.4870 0001000 157.6039 202.4856 15.27593814 78635
Epoch: Aug 24, 2026 • Age: 15 hours

当前状态

高度 495.5 km
远地点 / 近地点 N/A
速度 7.62 km/s
星下点 -41.18°S, 93.33°W
发射日期 Apr 6, 2025
运行时间 1.3 years
类型 internet

技术详情

分类 Payload
质量 575.00 kg
干质量 530.00 kg
总质量 575.00 kg
长度 0.30 m
直径 4.10 m
跨度 29.00 m
形状 Box + pan
制造商 SPXS
平台类型 Starlink V2MO
阶段状态 In Orbit
所有者/国家 SPXS/US

Most Searched